TimeEST,TemperatureF,Dew PointF,Humidity,Sea Level PressureIn,VisibilityMPH,Wind Direction,Wind SpeedMPH,Gust SpeedMPH,PrecipitationIn,Events,Conditions,WindDirDegrees,DateUTC
12:15 AM,37.4,35.6,93,30.05,4.0,Calm,Calm,-,N/A,,Overcast,0,2013-01-17 05:15:00
12:35 AM,37.4,37.4,100,30.06,5.0,Calm,Calm,-,N/A,,Overcast,0,2013-01-17 05:35:00
12:55 AM,37.4,37.4,100,30.07,10.0,WNW,4.6,-,N/A,,Overcast,290,2013-01-17 05:55:00
1:15 AM,37.4,33.8,87,30.07,10.0,Calm,Calm,-,N/A,,Overcast,0,2013-01-17 06:15:00
1:35 AM,37.4,35.6,93,30.10,10.0,Calm,Calm,-,N/A,,Overcast,0,2013-01-17 06:35:00
1:55 AM,37.4,35.6,93,30.10,10.0,Calm,Calm,-,N/A,,Overcast,0,2013-01-17 06:55:00
2:15 AM,37.4,33.8,87,30.09,10.0,Calm,Calm,-,N/A,,Overcast,0,2013-01-17 07:15:00
2:35 AM,37.4,32.0,81,30.08,10.0,Calm,Calm,-,N/A,,Overcast,0,2013-01-17 07:35:00
2:55 AM,37.4,32.0,81,30.11,10.0,Calm,Calm,-,N/A,,Overcast,0,2013-01-17 07:55:00
3:15 AM,35.6,33.8,93,30.09,10.0,Calm,Calm,-,N/A,,Overcast,0,2013-01-17 08:15:00
3:35 AM,35.6,32.0,87,30.08,10.0,Calm,Calm,-,N/A,,Overcast,0,2013-01-17 08:35:00
3:55 AM,35.6,32.0,87,30.06,10.0,East,6.9,-,N/A,,Mostly Cloudy,100,2013-01-17 08:55:00
4:35 AM,35.6,32.0,87,30.07,10.0,Calm,Calm,-,N/A,,Overcast,0,2013-01-17 09:35:00
4:55 AM,35.6,32.0,87,30.06,10.0,Calm,Calm,-,N/A,,Overcast,0,2013-01-17 09:55:00
5:15 AM,35.6,32.0,87,30.08,10.0,Calm,Calm,-,N/A,,Overcast,0,2013-01-17 10:15:00
5:35 AM,35.6,26.6,70,30.08,10.0,Calm,Calm,-,N/A,,Overcast,0,2013-01-17 10:35:00
5:55 AM,35.6,32.0,87,30.07,10.0,Calm,Calm,-,N/A,,Overcast,0,2013-01-17 10:55:00
6:15 AM,35.6,28.4,75,30.07,10.0,Calm,Calm,-,N/A,,Overcast,0,2013-01-17 11:15:00
6:35 AM,35.6,28.4,75,30.05,10.0,East,5.8,-,N/A,,Overcast,90,2013-01-17 11:35:00
6:55 AM,35.6,28.4,75,30.05,10.0,Calm,Calm,-,N/A,,Overcast,0,2013-01-17 11:55:00
7:15 AM,35.6,28.4,75,30.06,10.0,Calm,Calm,-,N/A,,Overcast,0,2013-01-17 12:15:00
7:35 AM,35.6,28.4,75,30.07,10.0,ENE,3.5,-,N/A,,Overcast,70,2013-01-17 12:35:00
7:55 AM,35.6,28.4,75,30.08,10.0,Calm,Calm,-,N/A,,Overcast,0,2013-01-17 12:55:00
8:15 AM,35.6,28.4,75,30.06,10.0,ENE,3.5,-,N/A,,Overcast,60,2013-01-17 13:15:00
8:35 AM,33.8,30.2,87,30.06,4.0,Calm,Calm,-,N/A,,Overcast,0,2013-01-17 13:35:00
8:55 AM,33.8,30.2,87,30.07,5.0,Calm,Calm,-,N/A,,Overcast,0,2013-01-17 13:55:00
9:15 AM,33.8,32.0,93,30.08,5.0,Calm,Calm,-,N/A,,Overcast,0,2013-01-17 14:15:00
9:35 AM,33.8,30.2,87,30.05,7.0,ENE,6.9,-,N/A,,Overcast,60,2013-01-17 14:35:00
9:55 AM,33.8,32.0,93,30.10,10.0,Calm,Calm,-,N/A,,Overcast,0,2013-01-17 14:55:00
10:15 AM,33.8,32.0,93,30.09,4.0,Calm,Calm,-,N/A,,Overcast,0,2013-01-17 15:15:00
10:35 AM,33.8,32.0,93,30.06,7.0,NE,3.5,-,N/A,,Overcast,40,2013-01-17 15:35:00
10:55 AM,33.8,32.0,93,30.05,10.0,ENE,4.6,-,N/A,,Overcast,70,2013-01-17 15:55:00
11:15 AM,33.8,32.0,93,30.03,3.0,ESE,4.6,-,N/A,,Overcast,110,2013-01-17 16:15:00
11:35 AM,33.8,32.0,93,30.06,5.0,WNW,4.6,-,N/A,,Overcast,290,2013-01-17 16:35:00
11:55 AM,33.8,32.0,93,30.05,5.0,NNW,3.5,-,N/A,,Overcast,340,2013-01-17 16:55:00
12:15 PM,33.8,32.0,93,30.02,5.0,NNE,4.6,-,N/A,,Overcast,20,2013-01-17 17:15:00
12:35 PM,33.8,30.2,87,30.03,7.0,NE,10.4,-,N/A,,Overcast,40,2013-01-17 17:35:00
12:55 PM,33.8,30.2,87,30.04,4.0,Calm,Calm,-,N/A,,Overcast,0,2013-01-17 17:55:00
1:15 PM,32.0,30.2,93,30.01,2.0,ENE,5.8,-,N/A,,Overcast,70,2013-01-17 18:15:00
1:35 PM,32.0,30.2,93,30.04,0.5,East,3.5,-,N/A,,Overcast,100,2013-01-17 18:35:00
2:15 PM,32.0,32.0,100,30.01,0.2,Calm,Calm,-,N/A,,Overcast,0,2013-01-17 19:15:00
2:55 PM,32.0,32.0,100,30.01,0.2,ESE,3.5,-,N/A,,Overcast,110,2013-01-17 19:55:00
3:15 PM,32.0,32.0,100,30.01,0.2,SE,4.6,-,N/A,,Overcast,130,2013-01-17 20:15:00
3:35 PM,32.0,32.0,100,30.03,1.2,Calm,Calm,-,N/A,,Overcast,0,2013-01-17 20:35:00
3:55 PM,32.0,32.0,100,30.03,0.8,Calm,Calm,-,N/A,,Overcast,0,2013-01-17 20:55:00
4:15 PM,32.0,32.0,100,30.06,2.0,Calm,Calm,-,N/A,,Overcast,0,2013-01-17 21:15:00
4:35 PM,32.0,32.0,100,30.05,7.0,Calm,Calm,-,N/A,,Unknown,0,2013-01-17 21:35:00
4:55 PM,32.0,32.0,100,30.06,10.0,Calm,Calm,-,N/A,,Unknown,0,2013-01-17 21:55:00
5:55 PM,32.0,32.0,100,30.06,10.0,NNW,9.2,18.4,N/A,,Unknown,340,2013-01-17 22:55:00
6:35 PM,32.0,30.2,93,30.12,10.0,NNE,3.5,-,N/A,,Mostly Cloudy,30,2013-01-17 23:35:00
7:35 PM,32.0,30.2,93,30.18,10.0,Calm,Calm,-,N/A,,Overcast,0,2013-01-18 00:35:00
8:15 PM,32.0,30.2,93,30.21,10.0,NW,4.6,-,N/A,,Overcast,310,2013-01-18 01:15:00
8:55 PM,32.0,30.2,93,30.23,10.0,Calm,Calm,-,N/A,,Overcast,0,2013-01-18 01:55:00
9:15 PM,32.0,28.4,87,30.25,10.0,NNW,5.8,-,N/A,,Overcast,330,2013-01-18 02:15:00
9:35 PM,32.0,28.4,87,30.27,10.0,Calm,Calm,-,N/A,,Overcast,0,2013-01-18 02:35:00
9:55 PM,32.0,28.4,87,30.28,10.0,Calm,Calm,-,N/A,,Mostly Cloudy,0,2013-01-18 02:55:00
10:15 PM,32.0,28.4,87,30.28,10.0,Calm,Calm,-,N/A,,Scattered Clouds,0,2013-01-18 03:15:00
10:35 PM,30.2,28.4,93,30.30,10.0,West,5.8,-,N/A,,Mostly Cloudy,270,2013-01-18 03:35:00
10:55 PM,30.2,28.4,93,30.31,10.0,Calm,Calm,-,N/A,,Mostly Cloudy,0,2013-01-18 03:55:00